sat.trackr.live / text

‹ back to catalog

BEIDOU-3 IGSO-1 (C38)

NORAD 44204 · 2019-023A

PAYLOAD ACTIVE UNKNOWN

§ Identity

Operator
Country
PRC
Launch date
2019-04-20
Launch site
XICLF
Launch vehicle
Mass (kg)
RCS (m²)

Purposes: comms, nav

External: N2YO · Heavens-Above · Gunter

§ Orbital elements

Epoch: 2026-05-12T18:25:31.496160Z

Period
1,436.40 min
Inclination
58.6468°
Eccentricity
0.0023856
Mean motion
1.00250503 rev/d
Perigee alt
35,692.0 km
Apogee alt
35,893.2 km
Semi-major
42,170.7 km
B*
0.0000e+0
RAAN
38.0171°
Arg perigee
234.3090°
Mean anomaly
349.8662°
Rev number
685

§ Raw data

BEIDOU-3 IGSO-1 (C38)1 44204U 19023A   26132.76772565 -.00000227  00000+0  00000+0 0  99982 44204  58.6468  38.0171 0023856 234.3090 349.8662  1.00250503  6851

JSON: /api/v1/satellites/44204 · /tle

For live sub-satellite position, see the globe view (requires WebGL).

§ Visibility from observer

Set your observer location to see the next 7 days of passes ≥ 10°. The values pass through the URL so the page stays shareable.

No JS? Fill the form by hand. The geolocation button needs JavaScript.